AirNav   Air Wisconsin Up To $57,000 Bonus
 
 1027 users online  

9U1 Wilsall Airport
Wilsall, Montana, USA

GOING TO WILSALL?


FAA INFORMATION EFFECTIVE 05 NOVEMBER 2020

Location

FAA Identifier: 9U1
Lat/Long: 46-02-58.3650N 110-41-05.8350W
46-02.972750N 110-41.097250W
46.0495458,-110.6849542
(estimated)
Elevation: 5140 ft. / 1566.7 m (surveyed)
Variation: 16E (1985)
From city: 4 miles NW of WILSALL, MT
Time zone: UTC -7 (UTC -6 during Daylight Saving Time)
Zip code: 59086

Airport Operations

Airport use: Open to the public
Activation date: 02/1963
Control tower: no
ARTCC: SALT LAKE CITY CENTER
FSS: GREAT FALLS FLIGHT SERVICE STATION
NOTAMs facility: GTF (NOTAM-D service available)
Attendance: UNATNDD
Wind indicator: yes
Segmented circle: no

Airport Communications

CTAF: 122.9

Nearby radio navigation aids

VOR radial/distance  VOR name  Freq  Var
LVMr319/23.2LIVINGSTON VOR/DME116.1015E
BZNr033/25.3BOZEMAN VOR/DME112.4018E

Airport Services

Airframe service: NONE
Powerplant service: NONE
Bottled oxygen: NONE
Bulk oxygen: NONE

Runway Information

Runway 1/19

Dimensions: 3100 x 78 ft. / 945 x 24 m
Surface: turf, in poor condition
SOFT WHEN WET; GOPHER HOLES ON RY. POOR CONDITION
Runway edge markings: 01/19 RWY AND THRESHOLD MKD WITH WHITE CONES FULL LENGTH. POOR CONDITION
RUNWAY 1  RUNWAY 19
Latitude: 46-02.718667N46-03.226833N
Longitude: 110-41.129167W110-41.065333W
Elevation: 5125.0 ft.5140.0 ft.
Traffic pattern: leftleft
Runway heading: 349 magnetic, 005 true169 magnetic, 185 true
Markings: NSTD, in poor conditionNSTD, in poor condition

Airport Ownership and Management from official FAA records

Ownership: Publicly-owned
Owner: CITY OF WILSALL & PARK COUNTY
COUNTY BLDG
LIVINGSTON, MT 59047
Phone 406-222-6120
Manager: RUSSEL FERGUSON
82 AIRPORT RD
LIVINGSTON, MT 59047
Phone 406-222-6504
FOR CURRENT ARPT INFO CONTACT JERRY MILLER 406-223-8460

Airport Operational Statistics

Aircraft operations: 60/year *
83% local general aviation
17% transient general aviation
* for 12-month period ending 17 July 2019

Additional Remarks

FENCE PARALLEL TO RY BOTH SIDES 100 FT E & 105 FT W.
WILDLIFE ON & INVOF ARPT.
MODEL AIRPLANE USAGE INVOF AIRPORT.
FOR CD CTC BIG SKY APCH AT 208-364-5860/5861, IF UNABLE CTC SALT LAKE ARTCC AT 801-320-2568.

Instrument Procedures

There are no published instrument procedures at 9U1.

Some nearby airports with instrument procedures:

KLVM - Mission Field Airport (23 nm SE)
KBZN - Bozeman Yellowstone International Airport (25 nm SW)
6S0 - Big Timber Airport (33 nm SE)
KHWQ - Wheatland County Airport at Harlowton (42 nm NE)
KEKS - Ennis - Big Sky Airport (62 nm SW)
 
Loc | Ops | Rwys | IFR | FBO | Links
Com | Nav | Svcs | Stats | Notes
Area around 9U1 (Wilsall Airport)
 
Road maps at: MapQuest Bing Google
 
Aerial photo
WARNING: Photo may not be current or correct
Aerial photo of 9U1 (Wilsall Airport)
Photo by Richard E. Grimm

Do you have a better or more recent aerial photo of Wilsall Airport that you would like to share? If so, please send us your photo.

 
Sectional chart

 
Airport distance calculator
Flying to Wilsall Airport? Find the distance to fly.

From to 9U1

Sunrise and sunset
Times for 24-Nov-2020
 Local
(UTC-7)
 Zulu
(UTC)
Morning civil twilight07:0514:05
Sunrise07:3814:38
Sunset16:4223:42
Evening civil twilight17:1500:15

Current date and time
Zulu (UTC)  25-Nov-2020 01:08:04
Local (UTC-7)  24-Nov-2020 18:08:04
 
METAR
KLVM 
23nm SE 
250053Z AUTO 22023G37KT 10SM CLR 03/M09 A2988 RMK AO2 PK WND 22041/0035 SLP139 T00281089
KBZN 
26nm SW 
250056Z 13004KT 10SM CLR 01/M08 A2993 RMK AO2 SLP171 T00061083
K7S6 
28nm N 
250055Z AUTO 18017KT 10SM 00/M09 A2988 RMK A01 White Sulphur Spg
K6S0 
33nm SE 
250055Z AUTO 27035G42KT 10SM CLR 03/M09 A2984 RMK A01
TAF
KLVM 
23nm SE 
241721Z 2418/2518 23025G35KT P6SM FEW050 SCT200 FM250300 22032G47KT P6SM SCT200 FM251600 24028G40KT P6SM VCSH BKN070
KBZN 
26nm SW 
241730Z 2418/2524 VRB06KT P6SM BKN060 FM242100 VRB06KT P6SM SCT060 BKN090 FM250200 15007KT P6SM FEW090 SCT250
NOTAMs
Click for the latest NOTAMs
NOTAMs are issued by the DoD/FAA and will open in a separate window not controlled by AirNav.

 

 
 

Would you like to see your business listed on this page?

 If your business provides an interesting product or service to pilots, flight crews, aircraft, or users of the Wilsall Airport, you should consider listing it here.  To start the listing process, click on the button below
 
Add a business
 

Other Pages about Wilsall Airport

Update a link
 
Copyright © AirNav, LLC. All rights reserved. Privacy Policy  Contact